SCP
0 0 0 0 0 0 0 0 0 0 0 0 0 0 0 0 0 0 0 0 0 0 0 0 0 0 0 0 0 0 0 0 0 0 0 0 0 0 0 0 0 0 0
0 0 0 0 0 0 0 0 0 0 0 0 0 0 0 0 0 0 0 0 0 0 0 0 0 0 0 0 0 0 0 0 0 0 0 0 0 0 0 0 0 0 0
0 0 0 0 0 0 0 0 0 0 0 0 0 0 0 0 0 0 0 0 0 0 0 0 0 0 0 0 0 0 0 0 0 0 0 0 0 0 0 0 0 0 0
0 0 0 0 0 0 0 0 0 0 0 0 0 0 0 0 0 0 0 0 0 0 0 0 0 0 0 0 0 0 0 0 0 0 0 0 0 0 0 0 0 0 0
0 0 0 0 0 0 0 0 0 0 0 0 0 0 0 0 0 0 0 0 0 0 0 0 0 0 0 0 0 0 0 0 0 0 0 0 0 0 0 0 0 0 0
0 0 0 0 0 0 0 0 0 0 0 0 0 0 0 0 0 0 0 0 0 0 0 0 0 0 0 0 0 0 0 0 0 0 0 0 0 0 0 0 0 0 0
0 0 -0 -0 -0 0 0 0 0 0 0 0 0 0 0 0 0 0 0 0 0 0 0 0 0 0 0 0 0 0 0 0 0 0 0 0 0 0 0 0 0 0 0
0 -0 0 0 0 0 0 0 0 0 0 0 0 0 0 0 0 0 0 0 0 0 0 0 0 0 0 0 0 0 0 0 0 0 0 0 0 0 0 0 0 0 0
-0 0 0 0 0 0 0 0 0 0 0 0 0 0 0 0 0 0 0 0 0 0 0 0 0 0 0 0 0 0 0 0 0 0 0 0 0 0 0 0 0 0 0
0 0 0 0 0 0 0 0 0 0 0 0 0 0 0 0 0 0 0 0 0 0 0 0 0 0 0 0 0 0 0 0 0 0 0 0 0 0 0 0 0 0 0
0 0 0 0 0 0 0 0 0 0 0 0 0 0 0 0 0 0 0 0 0 0 0 0 0 0 0 0 0 0 0 0 0 0 0 0 0 0 0 0 0 0 0
0 -0 0 0 0 0 0 0 0 0 0 0 0 0 0 0 0 0 0 0 0 0 0 0 0 0 0 0 0 0 0 0 0 0 0 0 0 0 0 0 0 0 0
-0 -0 0 0 0 0 0 0 0 0 0 0 0 0 0 0 0 0 0 0 0 0 0 0 0 0 0 0 0 0 0 0 0 0 0 0 0 0 0 0 0 0 0
-0 -0 0 0 0 0 0 0 0 0 0 0 0 0 0 0 0 0 0 0 0 0 0 0 0 0 0 0 0 0 0 0 0 0 0 0 0 0 0 0 0 0 0
-0 -0 0 0 0 0 0 0 0 0 0 0 0 0 0 0 0 0 0 0 0 0 0 0 0 0 0 0 0 0 0 0 0 0 0 0 0 0 0 0 0 0 0
-0 0 0 0 0 0 0 0 0 0 0 0 0 0 0 0 0 0 0 0 0 0 0 0 0 0 0 0 0 0 0 0 0 0 0 0 0 0 0 0 0 0 0
0 0 0 0 0 0 0 0 0 0 0 0 0 0 0 0 0 0 0 0 0 0 0 0 0 0 0 0 0 0 0 0 0 0 0 0 0 0 0 0 0 0 0
0 0 0 0 0 0 0 0 0 0 0 0 0 0 0 0 0 0 0 0 0 0 0 0 0 0 0 0 0 0 0 0 0 0 0 0 0 0 0 0 0 0 0
0 0 0 0 0 0 0 0 0 0 0 0 0 0 0 0 0 0 0 0 0 0 0 0 0 0 0 0 0 0 0 0 0 0 0 0 0 0 0 0 0 0 0
0 0 0 0 0 0 0 0 0 0 0 0 0 0 0 0 0 0 0 0 0 0 0 0 0 0 0 0 0 0 0 0 0 0 0 0 0 0 0 0 0 0 0
0 0 0 0 0 0 0 0 0 0 0 0 0 0 0 0 0 0 0 0 0 0 0 0 0 0 0 0 0 0 0 0 0 0 0 0 0 0 0 0 0 0 0
0 0 0 0 0 0 0 0 0 0 0 0 0 0 0 0 0 0 0 0 0 0 0 0 0 0 0 0 0 0 0 0 0 0 0 0 0 0 0 0 0 0 0
0 0 0 0 0 0 0 0 0 0 0 0 0 0 0 0 0 0 0 0 0 0 0 0 0 0 0 0 0 0 0 0 0 0 0 0 0 0 0 0 0 0 0
0 0 0 0 0 0 0 0 0 0 0 0 0 0 0 0 0 0 0 0 0 0 0 0 0 0 0 0 0 0 0 0 0 0 0 0 0 0 0 0 0 0 0
0 0 0 0 0 0 0 0 0 0 0 0 0 0 0 0 0 0 0 0 0 0 0 0 0 0 0 0 0 0 0 0 0 0 0 0 0 0 0 0 0 0 0
0 0 0 0 0 0 0 0 0 0 0 0 0 0 0 0 0 0 0 0 0 0 0 0 0 0 0 0 0 0 0 0 0 0 0 0 0 0 0 0 0 0 0
Wind_Speed_500mb
29 32 35 39 36 32 46 44 55 47 45 45 52 53 55 55 50 67 70 81 74 85 94 94 95 90 79 88 93 88 84 98 95 57 49 53 48 41 40 35 32 27 22
28 31 34 34 33 34 33 34 34 35 37 34 35 36 40 46 42 44 45 46 47 53 64 68 70 65 66 51 51 50 52 51 46 43 34 35 29 27 26 26 27 21 19
33 35 36 37 36 32 30 26 23 21 20 16 15 13 12 11 9 9 10 13 14 15 11 9 12 12 19 25 22 16 14 14 18 14 26 29 32 30 26 21 17 13 10
38 43 43 42 44 41 38 35 32 31 29 32 34 33 31 27 26 25 21 21 23 34 45 42 35 27 20 18 14 13 15 12 16 17 24 26 25 21 18 17 15 20 19
52 57 58 55 58 58 57 57 54 52 51 51 49 49 50 48 44 38 37 38 30 23 22 21 20 18 14 14 14 16 16 15 15 16 16 15 13 18 20 20 19 16 17
66 66 55 59 57 55 59 58 56 54 49 42 40 37 37 40 34 33 30 28 28 24 25 24 21 17 16 16 17 16 12 11 7 11 15 17 16 16 17 16 16 15 13
71 69 62 57 56 52 51 49 50 45 39 38 37 36 37 37 34 30 25 22 21 22 21 24 22 22 22 18 17 15 14 15 14 12 10 10 10 9 9 10 10 13 15
73 67 61 56 57 53 50 47 45 42 40 40 38 35 35 37 33 30 26 25 24 27 27 25 23 21 20 18 16 12 12 11 10 9 7 5 3 5 9 10 13 18 20
70 65 59 54 49 48 44 40 40 37 38 39 39 36 34 36 32 30 24 23 23 22 23 22 19 15 14 11 10 9 8 6 4 2 1 4 7 11 14 17 19 21 24
58 54 48 44 44 42 41 37 35 35 36 34 33 34 31 30 28 24 22 21 17 18 17 16 13 10 9 6 4 4 3 2 4 7 9 12 15 17 20 21 23 24 25
45 42 40 37 37 37 35 34 31 33 30 28 27 28 24 24 21 18 17 11 13 11 10 8 6 5 5 8 9 9 10 12 14 18 19 21 21 22 26 28 30 31 32
35 33 36 32 32 31 26 27 27 27 22 24 22 20 19 18 15 12 10 10 9 7 6 5 6 8 11 14 17 19 20 23 25 25 26 27 28 31 33 33 33 33 33
26 26 23 21 19 18 16 18 16 17 15 16 14 13 13 12 8 6 5 4 3 5 6 9 12 15 18 21 25 27 28 27 29 29 30 31 31 31 33 33 31 32 33
22 16 12 9 9 8 7 7 6 5 4 4 4 3 3 3 7 8 9 13 13 13 13 14 17 20 23 25 24 24 25 27 28 26 27 27 28 30 32 35 38 39 38
20 17 14 12 8 4 4 5 6 7 7 8 7 8 9 11 11 12 16 18 15 14 11 16 20 23 21 23 27 27 29 31 31 30 31 32 31 34 35 38 40 41 41
22 18 15 12 11 12 11 10 10 13 13 16 17 16 17 19 22 22 23 24 18 14 17 18 20 22 21 25 27 30 32 33 34 34 35 37 37 38 37 37 39 40 39
29 22 16 12 10 7 7 9 11 11 13 15 18 16 13 20 24 18 18 22 17 19 23 22 23 24 28 31 34 35 34 34 35 36 36 37 36 36 36 36 37 38 35
24 23 22 17 12 9 8 8 11 14 15 16 12 12 14 20 20 15 18 20 20 22 20 22 25 27 30 30 31 31 31 32 31 33 34 34 34 33 33 32 33 34 33
21 20 18 15 11 9 7 6 6 9 11 11 12 14 15 17 17 15 14 13 13 14 15 17 19 21 23 24 25 27 28 28 28 27 28 29 30 29 29 29 29 31 31
24 20 16 13 11 8 7 5 5 5 9 12 12 12 12 15 15 14 13 12 13 14 15 17 18 19 22 23 24 24 24 24 24 26 27 28 27 26 25 25 25 26 26
23 21 18 15 12 11 9 9 9 8 9 11 11 10 11 11 14 17 18 18 18 17 18 19 20 21 23 23 26 28 29 29 29 29 29 28 28 27 27 28 28 28 29
21 19 18 16 14 11 9 8 6 6 7 9 13 14 14 14 14 13 13 14 15 16 17 20 22 24 27 28 28 30 31 31 31 30 30 30 30 29 30 31 31 31 33
18 15 13 11 10 9 8 8 7 8 9 9 9 10 12 12 14 15 17 19 21 24 26 27 28 29 31 32 34 34 35 35 34 34 35 34 34 33 35 39 39 41 41
15 13 11 10 8 7 7 7 6 5 5 6 7 9 11 13 16 18 20 21 23 25 28 30 32 33 34 34 35 36 38 39 40 40 40 43 41 41 42 42 39 38 39
11 8 7 6 5 5 5 5 5 6 7 10 12 14 15 17 18 21 23 25 26 28 30 32 34 36 37 38 39 41 41 42 43 43 45 48 49 49 47 47 46 43 40
5 3 2 2 2 4 5 7 9 10 11 12 13 15 17 18 20 22 23 25 27 29 31 34 36 39 41 42 43 44 44 46 48 47 49 52 56 58 56 57 53 53 50
Wind_Direction_500mb
216 206 205 210 217 214 198 209 226 221 223 225 239 249 249 259 261 250 245 240 246 248 249 249 244 250 246 252 250 255 251 253 252 245 239 237 237 234 232 227 220 211 200
191 186 177 174 181 183 199 205 219 234 236 243 244 247 249 248 246 246 253 255 261 249 233 231 227 232 234 243 242 240 243 246 243 242 217 205 204 194 185 182 179 198 215
166 160 161 155 155 157 157 162 167 183 189 184 175 171 183 198 210 223 224 228 213 197 178 185 145 146 135 126 121 124 106 95 90 124 167 154 150 151 169 182 189 193 214
148 138 135 136 132 133 130 131 132 129 124 119 114 109 105 101 101 99 98 100 111 114 108 103 100 96 92 84 77 77 81 103 111 130 151 159 166 170 178 186 205 224 222
123 121 117 115 114 114 113 111 110 113 111 109 106 103 101 97 92 90 91 100 95 97 83 74 84 90 86 84 87 89 96 101 102 116 133 147 167 184 202 217 212 216 229
101 99 97 103 106 106 107 109 110 108 106 106 106 107 105 99 98 99 92 93 99 89 90 91 90 90 83 73 72 75 92 109 148 184 192 191 187 181 183 197 211 221 247
87 88 90 87 88 90 92 94 94 93 91 90 91 92 90 88 87 87 90 95 106 104 96 95 97 93 89 86 93 99 108 114 118 120 128 144 159 180 201 219 242 253 257
84 85 86 88 91 90 89 91 92 96 101 100 97 97 99 96 90 83 77 83 90 94 95 93 87 83 83 80 73 77 83 86 94 102 110 129 174 226 249 260 265 268 271
78 77 76 76 77 84 87 88 89 92 94 95 94 94 94 94 91 89 83 87 89 94 94 92 87 85 80 74 77 73 70 66 64 55 14 270 266 271 273 279 281 284 286
80 82 85 87 89 91 92 92 89 90 88 89 93 90 88 88 86 86 82 73 80 78 78 78 75 63 53 30 30 20 3 325 308 294 287 280 282 283 283 282 284 285 292
77 82 86 86 87 84 85 87 85 81 83 84 83 85 84 83 83 76 75 75 68 62 59 57 46 28 342 315 315 301 295 294 286 283 283 283 285 285 284 286 287 288 288
70 76 78 79 81 83 82 83 81 80 79 81 77 82 81 78 74 71 67 53 45 41 27 16 349 331 317 310 303 299 296 291 289 287 287 287 285 284 284 284 283 283 286
54 58 66 69 72 80 85 88 87 86 84 85 83 79 79 76 66 57 42 19 343 325 309 312 313 311 311 309 303 300 295 289 284 285 285 284 284 283 282 281 283 286 288
51 46 41 35 38 42 40 37 33 33 30 47 50 63 60 5 347 345 323 306 298 295 298 305 302 305 312 317 315 308 305 299 297 295 290 287 287 291 294 291 291 291 290
29 27 26 27 21 342 291 270 269 266 285 294 272 272 283 300 313 321 321 319 319 314 292 285 292 299 303 316 325 324 320 317 312 309 305 303 301 297 296 294 295 296 298
3 356 355 356 354 345 338 322 304 288 291 290 290 291 300 299 301 307 302 303 301 296 288 279 286 288 290 297 302 303 303 302 303 304 304 302 303 301 299 297 296 297 300
348 346 345 338 326 309 290 284 279 286 275 264 272 278 283 265 272 279 280 294 289 284 285 267 271 278 286 292 298 300 303 302 304 304 302 301 299 297 298 299 299 299 300
343 338 332 328 316 299 284 265 254 245 250 276 301 305 297 303 317 308 291 298 292 288 281 280 284 290 295 301 304 305 305 308 308 307 303 301 302 304 302 301 301 302 306
337 332 332 333 330 328 322 306 259 243 253 279 312 314 310 320 324 333 336 324 310 304 300 301 303 305 309 310 312 313 314 315 314 310 308 309 308 307 307 307 306 305 307
341 342 343 341 339 338 330 314 302 306 316 326 349 341 343 343 343 333 334 339 343 342 340 337 331 327 325 323 322 320 321 321 319 317 315 314 313 312 311 311 312 312 313
331 331 332 330 333 334 337 338 339 343 333 327 332 339 340 337 339 340 342 340 340 337 335 331 328 326 325 324 324 323 320 318 316 314 312 311 311 312 313 314 315 315 313
328 325 322 322 322 322 320 318 322 321 321 327 336 346 350 354 348 346 344 340 339 337 334 330 325 323 319 317 315 313 310 307 306 304 302 301 302 304 305 307 307 307 308
321 318 315 312 311 310 312 322 329 336 341 344 347 351 352 343 333 333 332 331 331 329 325 323 322 321 319 318 318 317 314 310 307 302 296 293 293 295 296 299 300 303 305
316 314 318 318 322 336 343 352 2 4 358 345 337 326 322 321 322 324 325 326 326 326 323 323 321 317 314 312 311 309 307 306 304 301 296 291 289 294 301 302 299 304 308
308 311 312 323 356 12 21 4 343 328 325 324 318 317 317 320 323 323 321 319 318 318 318 316 314 312 312 310 308 307 305 304 303 301 297 289 282 283 289 293 294 297 301
280 280 321 348 352 330 326 313 310 309 309 309 310 312 313 312 313 314 317 319 319 319 319 319 318 318 317 315 313 312 310 308 306 304 300 293 286 282 279 278 282 287 290
Wind_Speed_850mb
29 32 35 39 36 32 46 44 55 47 45 45 52 53 55 55 50 67 70 81 74 85 94 94 95 90 79 88 93 88 84 98 95 57 49 53 48 41 40 35 32 27 22
28 31 34 34 33 34 33 34 34 35 37 34 35 36 40 46 42 44 45 46 47 53 64 68 70 65 66 51 51 50 52 51 46 43 34 35 29 27 26 26 27 21 19
33 35 36 37 36 32 30 26 23 21 20 16 15 13 12 11 9 9 10 13 14 15 11 9 12 12 19 25 22 16 14 14 18 14 26 29 32 30 26 21 17 13 10
38 43 43 42 44 41 38 35 32 31 29 32 34 33 31 27 26 25 21 21 23 34 45 42 35 27 20 18 14 13 15 12 16 17 24 26 25 21 18 17 15 20 19
52 57 58 55 58 58 57 57 54 52 51 51 49 49 50 48 44 38 37 38 30 23 22 21 20 18 14 14 14 16 16 15 15 16 16 15 13 18 20 20 19 16 17
66 66 55 59 57 55 59 58 56 54 49 42 40 37 37 40 34 33 30 28 28 24 25 24 21 17 16 16 17 16 12 11 7 11 15 17 16 16 17 16 16 15 13
71 69 62 57 56 52 51 49 50 45 39 38 37 36 37 37 34 30 25 22 21 22 21 24 22 22 22 18 17 15 14 15 14 12 10 10 10 9 9 10 10 13 15
73 67 61 56 57 53 50 47 45 42 40 40 38 35 35 37 33 30 26 25 24 27 27 25 23 21 20 18 16 12 12 11 10 9 7 5 3 5 9 10 13 18 20
70 65 59 54 49 48 44 40 40 37 38 39 39 36 34 36 32 30 24 23 23 22 23 22 19 15 14 11 10 9 8 6 4 2 1 4 7 11 14 17 19 21 24
58 54 48 44 44 42 41 37 35 35 36 34 33 34 31 30 28 24 22 21 17 18 17 16 13 10 9 6 4 4 3 2 4 7 9 12 15 17 20 21 23 24 25
45 42 40 37 37 37 35 34 31 33 30 28 27 28 24 24 21 18 17 11 13 11 10 8 6 5 5 8 9 9 10 12 14 18 19 21 21 22 26 28 30 31 32
35 33 36 32 32 31 26 27 27 27 22 24 22 20 19 18 15 12 10 10 9 7 6 5 6 8 11 14 17 19 20 23 25 25 26 27 28 31 33 33 33 33 33
26 26 23 21 19 18 16 18 16 17 15 16 14 13 13 12 8 6 5 4 3 5 6 9 12 15 18 21 25 27 28 27 29 29 30 31 31 31 33 33 31 32 33
22 16 12 9 9 8 7 7 6 5 4 4 4 3 3 3 7 8 9 13 13 13 13 14 17 20 23 25 24 24 25 27 28 26 27 27 28 30 32 35 38 39 38
20 17 14 12 8 4 4 5 6 7 7 8 7 8 9 11 11 12 16 18 15 14 11 16 20 23 21 23 27 27 29 31 31 30 31 32 31 34 35 38 40 41 41
22 18 15 12 11 12 11 10 10 13 13 16 17 16 17 19 22 22 23 24 18 14 17 18 20 22 21 25 27 30 32 33 34 34 35 37 37 38 37 37 39 40 39
29 22 16 12 10 7 7 9 11 11 13 15 18 16 13 20 24 18 18 22 17 19 23 22 23 24 28 31 34 35 34 34 35 36 36 37 36 36 36 36 37 38 35
24 23 22 17 12 9 8 8 11 14 15 16 12 12 14 20 20 15 18 20 20 22 20 22 25 27 30 30 31 31 31 32 31 33 34 34 34 33 33 32 33 34 33
21 20 18 15 11 9 7 6 6 9 11 11 12 14 15 17 17 15 14 13 13 14 15 17 19 21 23 24 25 27 28 28 28 27 28 29 30 29 29 29 29 31 31
24 20 16 13 11 8 7 5 5 5 9 12 12 12 12 15 15 14 13 12 13 14 15 17 18 19 22 23 24 24 24 24 24 26 27 28 27 26 25 25 25 26 26
23 21 18 15 12 11 9 9 9 8 9 11 11 10 11 11 14 17 18 18 18 17 18 19 20 21 23 23 26 28 29 29 29 29 29 28 28 27 27 28 28 28 29
21 19 18 16 14 11 9 8 6 6 7 9 13 14 14 14 14 13 13 14 15 16 17 20 22 24 27 28 28 30 31 31 31 30 30 30 30 29 30 31 31 31 33
18 15 13 11 10 9 8 8 7 8 9 9 9 10 12 12 14 15 17 19 21 24 26 27 28 29 31 32 34 34 35 35 34 34 35 34 34 33 35 39 39 41 41
15 13 11 10 8 7 7 7 6 5 5 6 7 9 11 13 16 18 20 21 23 25 28 30 32 33 34 34 35 36 38 39 40 40 40 43 41 41 42 42 39 38 39
11 8 7 6 5 5 5 5 5 6 7 10 12 14 15 17 18 21 23 25 26 28 30 32 34 36 37 38 39 41 41 42 43 43 45 48 49 49 47 47 46 43 40
5 3 2 2 2 4 5 7 9 10 11 12 13 15 17 18 20 22 23 25 27 29 31 34 36 39 41 42 43 44 44 46 48 47 49 52 56 58 56 57 53 53 50
Wind_Direction_850mb
216 206 205 210 217 214 198 209 226 221 223 225 239 249 249 259 261 250 245 240 246 248 249 249 244 250 246 252 250 255 251 253 252 245 239 237 237 234 232 227 220 211 200
191 186 177 174 181 183 199 205 219 234 236 243 244 247 249 248 246 246 253 255 261 249 233 231 227 232 234 243 242 240 243 246 243 242 217 205 204 194 185 182 179 198 215
166 160 161 155 155 157 157 162 167 183 189 184 175 171 183 198 210 223 224 228 213 197 178 185 145 146 135 126 121 124 106 95 90 124 167 154 150 151 169 182 189 193 214
148 138 135 136 132 133 130 131 132 129 124 119 114 109 105 101 101 99 98 100 111 114 108 103 100 96 92 84 77 77 81 103 111 130 151 159 166 170 178 186 205 224 222
123 121 117 115 114 114 113 111 110 113 111 109 106 103 101 97 92 90 91 100 95 97 83 74 84 90 86 84 87 89 96 101 102 116 133 147 167 184 202 217 212 216 229
101 99 97 103 106 106 107 109 110 108 106 106 106 107 105 99 98 99 92 93 99 89 90 91 90 90 83 73 72 75 92 109 148 184 192 191 187 181 183 197 211 221 247
87 88 90 87 88 90 92 94 94 93 91 90 91 92 90 88 87 87 90 95 106 104 96 95 97 93 89 86 93 99 108 114 118 120 128 144 159 180 201 219 242 253 257
84 85 86 88 91 90 89 91 92 96 101 100 97 97 99 96 90 83 77 83 90 94 95 93 87 83 83 80 73 77 83 86 94 102 110 129 174 226 249 260 265 268 271
78 77 76 76 77 84 87 88 89 92 94 95 94 94 94 94 91 89 83 87 89 94 94 92 87 85 80 74 77 73 70 66 64 55 14 270 266 271 273 279 281 284 286
80 82 85 87 89 91 92 92 89 90 88 89 93 90 88 88 86 86 82 73 80 78 78 78 75 63 53 30 30 20 3 325 308 294 287 280 282 283 283 282 284 285 292
77 82 86 86 87 84 85 87 85 81 83 84 83 85 84 83 83 76 75 75 68 62 59 57 46 28 342 315 315 301 295 294 286 283 283 283 285 285 284 286 287 288 288
70 76 78 79 81 83 82 83 81 80 79 81 77 82 81 78 74 71 67 53 45 41 27 16 349 331 317 310 303 299 296 291 289 287 287 287 285 284 284 284 283 283 286
54 58 66 69 72 80 85 88 87 86 84 85 83 79 79 76 66 57 42 19 343 325 309 312 313 311 311 309 303 300 295 289 284 285 285 284 284 283 282 281 283 286 288
51 46 41 35 38 42 40 37 33 33 30 47 50 63 60 5 347 345 323 306 298 295 298 305 302 305 312 317 315 308 305 299 297 295 290 287 287 291 294 291 291 291 290
29 27 26 27 21 342 291 270 269 266 285 294 272 272 283 300 313 321 321 319 319 314 292 285 292 299 303 316 325 324 320 317 312 309 305 303 301 297 296 294 295 296 298
3 356 355 356 354 345 338 322 304 288 291 290 290 291 300 299 301 307 302 303 301 296 288 279 286 288 290 297 302 303 303 302 303 304 304 302 303 301 299 297 296 297 300
348 346 345 338 326 309 290 284 279 286 275 264 272 278 283 265 272 279 280 294 289 284 285 267 271 278 286 292 298 300 303 302 304 304 302 301 299 297 298 299 299 299 300
343 338 332 328 316 299 284 265 254 245 250 276 301 305 297 303 317 308 291 298 292 288 281 280 284 290 295 301 304 305 305 308 308 307 303 301 302 304 302 301 301 302 306
337 332 332 333 330 328 322 306 259 243 253 279 312 314 310 320 324 333 336 324 310 304 300 301 303 305 309 310 312 313 314 315 314 310 308 309 308 307 307 307 306 305 307
341 342 343 341 339 338 330 314 302 306 316 326 349 341 343 343 343 333 334 339 343 342 340 337 331 327 325 323 322 320 321 321 319 317 315 314 313 312 311 311 312 312 313
331 331 332 330 333 334 337 338 339 343 333 327 332 339 340 337 339 340 342 340 340 337 335 331 328 326 325 324 324 323 320 318 316 314 312 311 311 312 313 314 315 315 313
328 325 322 322 322 322 320 318 322 321 321 327 336 346 350 354 348 346 344 340 339 337 334 330 325 323 319 317 315 313 310 307 306 304 302 301 302 304 305 307 307 307 308
321 318 315 312 311 310 312 322 329 336 341 344 347 351 352 343 333 333 332 331 331 329 325 323 322 321 319 318 318 317 314 310 307 302 296 293 293 295 296 299 300 303 305
316 314 318 318 322 336 343 352 2 4 358 345 337 326 322 321 322 324 325 326 326 326 323 323 321 317 314 312 311 309 307 306 304 301 296 291 289 294 301 302 299 304 308
308 311 312 323 356 12 21 4 343 328 325 324 318 317 317 320 323 323 321 319 318 318 318 316 314 312 312 310 308 307 305 304 303 301 297 289 282 283 289 293 294 297 301
280 280 321 348 352 330 326 313 310 309 309 309 310 312 313 312 313 314 317 319 319 319 319 319 318 318 317 315 313 312 310 308 306 304 300 293 286 282 279 278 282 287 290